AFL2121 LTFE-UUEE

Flight info

Callsign AFL2121
Flight time 4h 23m
Altitude 33000
Route CENGO1A/28R CENGO UW95 CRD UN136 KFK UT54 HALIL UW77 BAG UT61 SIN UW96 ODIRA G487 ERSAR DCT BEMES DCT VULFI DCT TUVGI DCT EVZUN DCT ZIZAR DCT VAZLU DCT UZZID DCT NOKLI N72 WGD G481 OBABI T619 UMRAL P163 LADIM/K0867F360 P163 GOLRI L736 OLOPI
Aircraft B738/M-VGDW/C

Departure

Time 2026-04-30 14:10
Airport Milas Bodrum International Airport (LTFE)

Arrival

Time 2026-04-30 18:33
Airport Sheremetyevo International Airport (UUEE)
Time Latitude Longitude Altitude Speed Heading
2026-04-30 13:43 37.24405 27.67703 30 ft 0 kts 197°
2026-04-30 13:59 37.24410 27.67705 29 ft 2 kts 198°
2026-04-30 13:59 37.24428 27.67713 30 ft 3 kts 198°
2026-04-30 14:00 37.24447 27.67719 30 ft 3 kts 185°
2026-04-30 14:00 37.24487 27.67724 30 ft 3 kts 179°
2026-04-30 14:00 37.24496 27.67724 30 ft 0 kts 174°
2026-04-30 14:05 37.24494 27.67724 30 ft 2 kts 170°
2026-04-30 14:05 37.24476 27.67755 30 ft 6 kts 108°
2026-04-30 14:05 37.24461 27.67809 30 ft 7 kts 107°
2026-04-30 14:06 37.24446 27.67877 30 ft 8 kts 106°
2026-04-30 14:06 37.24437 27.68009 30 ft 8 kts 48°
2026-04-30 14:07 37.24511 27.68060 29 ft 0 kts 19°
2026-04-30 14:08 37.24540 27.68073 29 ft 8 kts 19°
2026-04-30 14:08 37.24609 27.68099 29 ft 11 kts 18°
2026-04-30 14:08 37.24724 27.68124 29 ft 9 kts 332°
2026-04-30 14:09 37.24747 27.68057 30 ft 8 kts 286°
2026-04-30 14:09 37.24776 27.67941 31 ft 30 kts 287°
2026-04-30 14:09 37.25158 27.66349 29 ft 153 kts 286°
2026-04-30 14:10 37.25482 27.64887 245 ft 184 kts 285°
2026-04-30 14:10 37.25858 27.63354 1027 ft 187 kts 283°
2026-04-30 14:10 37.26146 27.61751 1821 ft 189 kts 279°
2026-04-30 14:10 37.26443 27.60064 2172 ft 214 kts 283°
2026-04-30 14:11 37.26830 27.58149 2464 ft 232 kts 283°
2026-04-30 14:11 37.27240 27.56153 2967 ft 239 kts 284°
2026-04-30 14:11 37.27661 27.54105 3560 ft 244 kts 284°
2026-04-30 14:11 37.28084 27.52038 4211 ft 245 kts 284°
2026-04-30 14:12 37.28511 27.49958 4848 ft 247 kts 284°
2026-04-30 14:12 37.28670 27.47825 5450 ft 249 kts 258°
2026-04-30 14:12 37.27944 27.45869 6039 ft 253 kts 230°
2026-04-30 14:12 37.26481 27.44522 6349 ft 272 kts 201°
2026-04-30 14:13 37.24594 27.44196 6920 ft 280 kts 173°
2026-04-30 14:13 37.22762 27.45020 7593 ft 285 kts 144°
2026-04-30 14:13 37.21468 27.46892 8303 ft 288 kts 114°
2026-04-30 14:13 37.21120 27.49356 8975 ft 292 kts 83°
2026-04-30 14:14 37.21723 27.51783 9616 ft 295 kts 65°
2026-04-30 14:14 37.22581 27.54150 10224 ft 301 kts 66°
2026-04-30 14:14 37.23447 27.56636 10441 ft 322 kts 67°
2026-04-30 14:14 37.24337 27.59317 10615 ft 343 kts 68°
2026-04-30 14:15 37.25126 27.62227 10746 ft 363 kts 81°
2026-04-30 14:15 37.24993 27.65444 10891 ft 380 kts 106°
2026-04-30 14:15 37.23917 27.68527 11080 ft 393 kts 119°
2026-04-30 14:15 37.22603 27.71583 11520 ft 400 kts 119°
2026-04-30 14:16 37.21263 27.74655 12089 ft 403 kts 120°
2026-04-30 14:16 37.19921 27.77745 12692 ft 405 kts 119°
2026-04-30 14:16 37.18581 27.80861 13232 ft 408 kts 119°
2026-04-30 14:16 37.17236 27.84018 13714 ft 412 kts 119°
2026-04-30 14:17 37.15885 27.87206 14213 ft 416 kts 119°
2026-04-30 14:17 37.14520 27.90432 14703 ft 420 kts 119°
2026-04-30 14:17 37.13148 27.93677 15198 ft 423 kts 119°
2026-04-30 14:17 37.11766 27.96942 15685 ft 426 kts 119°
2026-04-30 14:18 37.10367 28.00238 16134 ft 430 kts 119°
2026-04-30 14:18 37.08964 28.03557 16574 ft 434 kts 117°
2026-04-30 14:18 37.08059 28.10957 17502 ft 440 kts 80°
2026-04-30 14:19 37.10512 28.17968 18283 ft 445 kts 58°
2026-04-30 14:19 37.12116 28.21304 18681 ft 449 kts 58°
2026-04-30 14:19 37.13696 28.24686 19114 ft 451 kts 59°
2026-04-30 14:20 37.15271 28.28113 19474 ft 455 kts 58°
2026-04-30 14:20 37.16947 28.31492 19849 ft 458 kts 58°
2026-04-30 14:20 37.20086 28.38490 20620 ft 463 kts 60°
2026-04-30 14:21 37.21639 28.42040 20969 ft 466 kts 60°
2026-04-30 14:21 37.23219 28.45593 21310 ft 468 kts 60°
2026-04-30 14:21 37.26445 28.52751 21939 ft 473 kts 59°
2026-04-30 14:22 37.28072 28.56346 22246 ft 475 kts 59°
2026-04-30 14:22 37.31344 28.63599 22844 ft 480 kts 59°
2026-04-30 14:22 37.32993 28.67265 23130 ft 482 kts 59°
2026-04-30 14:23 37.36304 28.74633 23675 ft 487 kts 59°
2026-04-30 14:23 37.39690 28.82051 24250 ft 490 kts 59°
2026-04-30 14:24 37.43094 28.89488 24792 ft 493 kts 59°
2026-04-30 14:24 37.44802 28.93237 25031 ft 494 kts 59°
2026-04-30 14:25 37.48228 29.00773 25507 ft 498 kts 59°
2026-04-30 14:25 37.51669 29.08372 26049 ft 499 kts 59°
2026-04-30 14:26 37.55085 29.15935 26813 ft 495 kts 59°
2026-04-30 14:26 37.56782 29.19696 27130 ft 494 kts 59°
2026-04-30 14:26 37.60168 29.27235 27728 ft 493 kts 60°
2026-04-30 14:27 37.61831 29.31011 28065 ft 492 kts 60°
2026-04-30 14:27 37.63482 29.34788 28405 ft 491 kts 60°
2026-04-30 14:27 37.65122 29.38549 28741 ft 489 kts 60°
2026-04-30 14:28 37.68408 29.46074 29323 ft 489 kts 60°
2026-04-30 14:28 37.70048 29.49830 29596 ft 489 kts 60°
2026-04-30 14:28 37.71689 29.53591 29881 ft 488 kts 60°
2026-04-30 14:28 37.73324 29.57339 30193 ft 487 kts 60°
2026-04-30 14:29 37.76588 29.64828 30691 ft 487 kts 59°
2026-04-30 14:29 37.79951 29.70495 31042 ft 485 kts 44°
2026-04-30 14:30 37.88987 29.78713 31825 ft 480 kts 30°
2026-04-30 14:31 37.94628 29.83237 32292 ft 479 kts 30°
2026-04-30 14:31 38.00223 29.87818 32705 ft 479 kts 31°
2026-04-30 14:31 38.03018 29.90124 32905 ft 479 kts 31°
2026-04-30 14:32 38.11426 29.97076 33002 ft 480 kts 31°
2026-04-30 14:33 38.17015 30.01700 32997 ft 477 kts 30°
2026-04-30 14:33 38.25329 30.08581 32999 ft 475 kts 30°
2026-04-30 14:34 38.30858 30.13170 33008 ft 474 kts 30°
2026-04-30 14:34 38.36390 30.17768 33007 ft 475 kts 30°
2026-04-30 14:35 38.44705 30.24698 33006 ft 478 kts 30°
2026-04-30 14:36 38.50279 30.29353 33008 ft 480 kts 31°
2026-04-30 14:36 38.55392 30.34910 32998 ft 488 kts 48°
2026-04-30 14:37 38.59651 30.41681 32999 ft 490 kts 50°
2026-04-30 14:37 38.63909 30.48479 33003 ft 490 kts 49°
2026-04-30 14:38 38.68228 30.55238 33001 ft 490 kts 49°
2026-04-30 14:38 38.72468 30.62068 32987 ft 491 kts 55°
2026-04-30 14:39 38.75816 30.69724 33000 ft 492 kts 61°
2026-04-30 14:39 38.78989 30.77493 33005 ft 492 kts 61°
2026-04-30 14:40 38.83811 30.89125 33008 ft 492 kts 60°
2026-04-30 14:40 38.87052 30.96865 33008 ft 493 kts 60°
2026-04-30 14:41 38.90289 31.04606 33010 ft 493 kts 60°
2026-04-30 14:41 38.93536 31.12397 33010 ft 494 kts 60°
2026-04-30 14:42 38.96772 31.20185 33007 ft 494 kts 60°
2026-04-30 14:42 39.00009 31.28002 33007 ft 494 kts 60°
2026-04-30 14:43 39.03232 31.35800 33023 ft 493 kts 60°
2026-04-30 14:43 39.06447 31.43589 33014 ft 493 kts 60°
2026-04-30 14:44 39.09656 31.51390 33020 ft 493 kts 60°
2026-04-30 14:44 39.12854 31.59184 33020 ft 492 kts 60°
2026-04-30 14:45 39.16050 31.66995 33021 ft 493 kts 60°
2026-04-30 14:45 39.19241 31.74810 33019 ft 494 kts 60°
2026-04-30 14:46 39.22395 31.82678 33015 ft 495 kts 64°
2026-04-30 14:46 39.24640 31.89475 33023 ft 496 kts 67°
2026-04-30 14:47 39.27157 31.97754 33022 ft 496 kts 68°
2026-04-30 14:47 39.29727 32.06041 33021 ft 497 kts 67°
2026-04-30 14:48 39.32335 32.14296 33030 ft 498 kts 66°
2026-04-30 14:48 39.34955 32.22591 33028 ft 498 kts 67°
2026-04-30 14:49 39.37634 32.30843 33023 ft 498 kts 60°
2026-04-30 14:49 39.39580 32.34516 33067 ft 493 kts 45°
2026-04-30 14:49 39.42044 32.37549 33217 ft 485 kts 34°
2026-04-30 14:50 39.47858 32.41770 33480 ft 480 kts 22°
2026-04-30 14:50 39.50858 32.43676 33597 ft 482 kts 22°
2026-04-30 14:51 39.56878 32.47555 33851 ft 484 kts 22°
2026-04-30 14:51 39.59884 32.49527 33971 ft 485 kts 23°
2026-04-30 14:51 39.65911 32.53520 34219 ft 486 kts 23°
2026-04-30 14:52 39.68913 32.55518 34337 ft 485 kts 23°
2026-04-30 14:52 39.74911 32.59513 34585 ft 484 kts 23°
2026-04-30 14:52 39.77915 32.61514 34701 ft 484 kts 23°
2026-04-30 14:53 39.83889 32.65503 34942 ft 481 kts 23°
2026-04-30 14:53 39.86858 32.67488 35009 ft 480 kts 23°
2026-04-30 14:54 39.98745 32.75450 35036 ft 480 kts 23°
2026-04-30 14:55 40.07601 32.81628 35015 ft 485 kts 31°
2026-04-30 14:56 40.17953 32.93133 35023 ft 489 kts 38°
2026-04-30 14:57 40.25653 33.01879 35021 ft 488 kts 37°
2026-04-30 14:58 40.35963 33.13483 35021 ft 489 kts 37°
2026-04-30 14:58 40.43692 33.22212 35027 ft 489 kts 37°
2026-04-30 15:00 40.56548 33.36803 35028 ft 489 kts 37°
2026-04-30 15:01 40.66830 33.48524 35025 ft 489 kts 37°
2026-04-30 15:01 40.74536 33.57342 35026 ft 489 kts 37°
2026-04-30 15:02 40.79670 33.63235 35036 ft 489 kts 37°
2026-04-30 15:03 40.92516 33.78031 35013 ft 491 kts 37°
2026-04-30 15:04 41.05356 33.92896 35025 ft 491 kts 37°
2026-04-30 15:06 41.18219 34.07874 35029 ft 493 kts 37°
2026-04-30 15:07 41.28529 34.19936 35030 ft 494 kts 37°
2026-04-30 15:08 41.38802 34.32020 35030 ft 495 kts 38°
2026-04-30 15:09 41.51645 34.47234 35050 ft 496 kts 38°
2026-04-30 15:10 41.61957 34.59465 35059 ft 496 kts 37°
2026-04-30 15:11 41.77442 34.77827 35098 ft 496 kts 38°
2026-04-30 15:13 41.90305 34.93193 35117 ft 494 kts 38°
2026-04-30 15:14 42.06161 35.17314 35135 ft 505 kts 62°
2026-04-30 15:17 42.20515 35.55536 35120 ft 510 kts 61°
2026-04-30 15:19 42.33357 35.89565 35130 ft 509 kts 61°
2026-04-30 17:39 51.59958 42.39831 36167 ft 474 kts 337°
2026-04-30 17:42 51.91109 42.21681 36177 ft 477 kts 337°
2026-04-30 17:43 52.06706 42.12492 36194 ft 477 kts 337°
2026-04-30 17:44 52.25560 42.01986 36190 ft 477 kts 339°
2026-04-30 17:46 52.41620 41.95475 36184 ft 483 kts 359°
2026-04-30 17:47 52.55057 41.96454 36185 ft 483 kts 360°
2026-04-30 17:48 52.68525 41.96645 36169 ft 479 kts 346°
2026-04-30 17:48 52.77149 41.89117 36202 ft 467 kts 318°
2026-04-30 17:50 52.97207 41.61712 36184 ft 468 kts 318°
2026-04-30 17:52 53.12294 41.41124 36186 ft 468 kts 318°
2026-04-30 17:53 53.25444 41.25264 36199 ft 472 kts 337°
2026-04-30 17:54 53.38040 41.18932 36202 ft 473 kts 341°
2026-04-30 17:56 53.62143 41.06583 36202 ft 473 kts 341°
2026-04-30 17:57 53.70731 40.99164 36215 ft 463 kts 309°
2026-04-30 17:58 53.75065 40.84818 36206 ft 459 kts 291°
2026-04-30 18:00 53.85170 40.44974 36203 ft 462 kts 292°
2026-04-30 18:01 53.91503 40.19950 36201 ft 463 kts 292°
2026-04-30 18:02 53.99046 39.89766 36213 ft 463 kts 292°
2026-04-30 18:04 54.06554 39.59309 35047 ft 467 kts 292°
2026-04-30 18:05 54.11431 39.39297 32772 ft 452 kts 292°
2026-04-30 18:06 54.16179 39.19632 30491 ft 453 kts 292°
2026-04-30 18:07 54.20941 38.99737 28136 ft 447 kts 292°
2026-04-30 18:08 54.26123 38.87323 27250 ft 418 kts 327°
2026-04-30 18:09 54.35960 38.78990 27239 ft 390 kts 333°
2026-04-30 18:10 54.45390 38.70972 27144 ft 355 kts 332°
2026-04-30 18:11 54.54281 38.63313 26234 ft 373 kts 332°
2026-04-30 18:11 54.61788 38.58796 25845 ft 378 kts 341°
2026-04-30 18:12 54.69371 38.54839 24355 ft 380 kts 341°
2026-04-30 18:13 54.74424 38.52254 23517 ft 376 kts 341°
2026-04-30 18:13 54.81011 38.48854 22515 ft 367 kts 342°
2026-04-30 18:14 54.86669 38.45759 21502 ft 363 kts 342°
2026-04-30 18:15 54.93776 38.41795 20373 ft 353 kts 342°
2026-04-30 18:15 55.00693 38.37874 19261 ft 345 kts 342°
2026-04-30 18:16 55.05209 38.35281 18503 ft 339 kts 342°
2026-04-30 18:16 55.09656 38.32702 17751 ft 334 kts 342°
2026-04-30 18:17 55.11860 38.31417 17376 ft 332 kts 342°
2026-04-30 18:17 55.14046 38.30140 17002 ft 330 kts 342°
2026-04-30 18:17 55.18378 38.27602 16254 ft 327 kts 342°
2026-04-30 18:18 55.20530 38.26342 15877 ft 325 kts 342°
2026-04-30 18:18 55.22671 38.25081 15505 ft 323 kts 342°
2026-04-30 18:18 55.24796 38.23827 15124 ft 321 kts 342°
2026-04-30 18:18 55.26909 38.22580 14750 ft 319 kts 341°
2026-04-30 18:19 55.28990 38.21288 14473 ft 315 kts 340°
2026-04-30 18:19 55.31030 38.19970 14223 ft 312 kts 340°
2026-04-30 18:19 55.33053 38.18651 13973 ft 310 kts 340°
2026-04-30 18:19 55.35082 38.17331 13720 ft 311 kts 340°
2026-04-30 18:20 55.37112 38.16013 13481 ft 312 kts 340°
2026-04-30 18:20 55.39156 38.14688 13295 ft 313 kts 340°
2026-04-30 18:20 55.41192 38.13371 13254 ft 312 kts 340°
2026-04-30 18:20 55.43234 38.12050 13241 ft 312 kts 340°
2026-04-30 18:21 55.45270 38.10734 13222 ft 311 kts 340°
2026-04-30 18:21 55.47296 38.09423 12993 ft 309 kts 340°
2026-04-30 18:21 55.49309 38.08120 12738 ft 309 kts 340°
2026-04-30 18:21 55.51325 38.06815 12501 ft 310 kts 340°
2026-04-30 18:22 55.53353 38.05500 12244 ft 309 kts 340°
2026-04-30 18:22 55.57372 38.02888 11751 ft 307 kts 340°
2026-04-30 18:22 55.59368 38.01590 11501 ft 306 kts 340°
2026-04-30 18:23 55.61392 38.00272 11246 ft 305 kts 340°
2026-04-30 18:23 55.63378 37.98978 10998 ft 304 kts 340°
2026-04-30 18:23 55.65326 37.97707 10749 ft 301 kts 340°
2026-04-30 18:23 55.67279 37.96431 10453 ft 297 kts 340°
2026-04-30 18:24 55.71142 37.93903 9719 ft 295 kts 340°
2026-04-30 18:24 55.73060 37.92646 9350 ft 294 kts 340°
2026-04-30 18:24 55.74978 37.91387 8979 ft 293 kts 339°
2026-04-30 18:25 55.76882 37.90137 8605 ft 291 kts 339°
2026-04-30 18:25 55.80573 37.87710 7862 ft 275 kts 339°
2026-04-30 18:25 55.82355 37.86536 7519 ft 272 kts 339°
2026-04-30 18:26 55.85923 37.84181 6749 ft 275 kts 339°
2026-04-30 18:26 55.87717 37.82996 6388 ft 274 kts 339°
2026-04-30 18:26 55.89482 37.81828 6020 ft 268 kts 339°
2026-04-30 18:27 55.92872 37.79584 5352 ft 253 kts 339°
2026-04-30 18:27 55.94502 37.78503 5033 ft 246 kts 339°
2026-04-30 18:28 55.97621 37.76431 4477 ft 229 kts 339°
2026-04-30 18:28 55.99084 37.75459 4043 ft 224 kts 339°
2026-04-30 18:28 56.00924 37.71944 3699 ft 191 kts 275°
2026-04-30 18:29 56.00992 37.69605 3460 ft 185 kts 277°
2026-04-30 18:29 56.00375 37.63054 2763 ft 171 kts 257°
2026-04-30 18:30 55.99882 37.59792 2413 ft 160 kts 257°
2026-04-30 18:30 55.99220 37.55400 1943 ft 148 kts 257°
2026-04-30 18:31 55.98966 37.53706 1737 ft 139 kts 257°
2026-04-30 18:31 55.98481 37.50469 1406 ft 135 kts 257°
2026-04-30 18:32 55.97992 37.47203 1014 ft 136 kts 257°
2026-04-30 18:32 55.97749 37.45578 840 ft 136 kts 257°
2026-04-30 18:32 55.97295 37.42487 640 ft 109 kts 254°
2026-04-30 18:33 55.97129 37.41397 639 ft 70 kts 255°
2026-04-30 18:33 55.96944 37.40142 640 ft 17 kts 256°
2026-04-30 18:33 55.96965 37.40080 640 ft 5 kts 327°
2026-04-30 18:34 55.96997 37.40042 639 ft 6 kts 328°
2026-04-30 18:34 55.97050 37.40011 640 ft 0 kts 346°
2026-04-30 18:37 55.97067 37.40003 638 ft 5 kts 346°
2026-04-30 18:37 55.97115 37.39982 638 ft 9 kts 346°
2026-04-30 18:37 55.97189 37.39948 637 ft 13 kts 345°
2026-04-30 18:38 55.97276 37.39907 637 ft 13 kts 345°
2026-04-30 18:38 55.97311 37.39890 638 ft 0 kts 345°
2026-04-30 18:38 55.97313 37.39891 637 ft 0 kts 356°
2026-04-30 18:38 55.97317 37.39895 639 ft 1 kts 24°
2026-04-30 18:39 55.97329 37.39912 642 ft 3 kts 41°
2026-04-30 18:39 55.97341 37.39931 639 ft 0 kts 44°
2026-04-30 18:39 55.97341 37.39932 639 ft 0 kts 43°
2026-04-30 18:39 55.97344 37.39930 638 ft 1 kts
2026-04-30 18:40 55.97352 37.39913 638 ft 2 kts 307°
2026-04-30 18:40 55.97363 37.39887 640 ft 5 kts 308°
2026-04-30 18:40 55.97425 37.39837 638 ft 12 kts 343°
2026-04-30 18:40 55.97509 37.39787 638 ft 15 kts 341°
2026-04-30 18:41 55.97611 37.39809 638 ft 17 kts 69°
2026-04-30 18:41 55.97634 37.40010 638 ft 16 kts 79°
2026-04-30 18:41 55.97664 37.40198 640 ft 16 kts 70°
2026-04-30 18:41 55.97695 37.40381 640 ft 15 kts 75°
2026-04-30 18:42 55.97716 37.40558 641 ft 14 kts 90°
2026-04-30 18:42 55.97725 37.40884 638 ft 13 kts 96°
2026-04-30 18:42 55.97740 37.41013 638 ft 0 kts 75°